When you browse on this site, cookies collect data to enhance your experience and personalize the content and advertising you see.
Visit our Privacy Policy to learn more. By continuing to use the site, you agree to this use of cookies and data.
  • In Hungary
  • List of Countries
  • For 7 days
  • Water Temperature
  • Satellite Maps
  • Weather Map
  • News
  • Weather Widgets
  • user-avatar
    Login

    Hourly Weather Rakowek

    Today, 18 December, Tuesday

    Time Temperature Precipitation Wind Pressure Humidity
    00:00 -4°C° 0 mm 2 mps 749 mmHg 92%
    01:00 -3°C° 0 mm 2 mps 749 mmHg 92%
    02:00 -3°C° 0 mm 2 mps 749 mmHg 92%
    03:00 0°C° 0 mm 1 mps 749 mmHg 92%
    04:00 0°C° 0 mm 1 mps 749 mmHg 93%
    05:00 0°C° 0 mm 1 mps 749 mmHg 92%
    06:00 -1°C° 0 mm 1 mps 749 mmHg 92%
    07:00 -1°C° 0 mm 1 mps 750 mmHg 92%
    08:00 0°C° 0 mm 1 mps 750 mmHg 91%
    09:00 -1°C° 0 mm 0 mps 750 mmHg 90%
    10:00 0°C° 0 mm 0 mps 750 mmHg 89%
    11:00 0°C° 0 mm 0 mps 750 mmHg 90%
    12:00 +2°C° 0 mm 1 mps 750 mmHg 90%
    13:00 +1°C° 0 mm 0 mps 750 mmHg 92%
    14:00 +1°C° 0 mm 0 mps 750 mmHg 92%
    15:00 +2°C° 0 mm 1 mps 750 mmHg 91%
    16:00 +1°C° 0 mm 1 mps 750 mmHg 91%
    17:00 +1°C° 0 mm 1 mps 750 mmHg 90%
    18:00 +1°C° 0 mm 1 mps 750 mmHg 90%
    19:00 +1°C° 0 mm 1 mps 750 mmHg 90%
    20:00 +1°C° 0 mm 1 mps 750 mmHg 90%
    21:00 -2°C° 0 mm 2 mps 750 mmHg 91%
    22:00 -2°C° 0 mm 2 mps 750 mmHg 91%
    23:00 -3°C° 0 mm 2 mps 750 mmHg 91%

    Tomorrow, 19 December, Wednesday

    Time Temperature Precipitation Wind Pressure Humidity
    00:00 -3°C° 0 mm 2 mps 750 mmHg 92%
    01:00 -4°C° 0 mm 2 mps 750 mmHg 92%
    02:00 -4°C° 0 mm 2 mps 750 mmHg 92%
    03:00 -4°C° 0 mm 2 mps 750 mmHg 92%
    04:00 -4°C° 0 mm 2 mps 750 mmHg 93%
    05:00 -6°C° 0 mm 3 mps 750 mmHg 93%
    06:00 -6°C° 0 mm 3 mps 749 mmHg 92%
    07:00 -6°C° 0 mm 3 mps 749 mmHg 92%
    08:00 -6°C° 0 mm 3 mps 749 mmHg 90%
    09:00 -5°C° 0 mm 3 mps 749 mmHg 87%
    10:00 -5°C° 0 mm 4 mps 749 mmHg 84%
    11:00 -4°C° 0 mm 4 mps 748 mmHg 83%
    12:00 -4°C° 0 mm 3 mps 748 mmHg 81%
    13:00 -2°C° 0 mm 3 mps 748 mmHg 80%
    14:00 -4°C° 0 mm 3 mps 747 mmHg 83%
    15:00 -5°C° 0 mm 3 mps 747 mmHg 85%
    16:00 -5°C° 0 mm 3 mps 747 mmHg 88%
    17:00 -6°C° 0 mm 3 mps 747 mmHg 88%
    18:00 -6°C° 0 mm 3 mps 747 mmHg 89%
    19:00 -6°C° 0 mm 3 mps 746 mmHg 89%
    20:00 -6°C° 0 mm 3 mps 746 mmHg 89%
    21:00 -6°C° 0 mm 3 mps 746 mmHg 89%
    22:00 -5°C° 0 mm 2 mps 746 mmHg 89%
    23:00 -5°C° 0 mm 2 mps 746 mmHg 88%

    Day after tomorrow, 20 December, Thursday

    Time Temperature Precipitation Wind Pressure Humidity
    00:00 -5°C° 0 mm 2 mps 746 mmHg 88%
    01:00 -5°C° 0 mm 2 mps 745 mmHg 87%
    02:00 -5°C° 0 mm 2 mps 745 mmHg 86%
    03:00 -5°C° 0 mm 2 mps 745 mmHg 85%
    04:00 -5°C° 0 mm 2 mps 745 mmHg 85%
    05:00 -4°C° 0 mm 2 mps 745 mmHg 84%
    06:00 -2°C° 0 mm 1 mps 745 mmHg 83%
    07:00 -2°C° 0 mm 1 mps 745 mmHg 82%
    08:00 -2°C° 0 mm 1 mps 745 mmHg 81%
    09:00 -1°C° 0 mm 1 mps 745 mmHg 79%
    10:00 -1°C° 0 mm 1 mps 745 mmHg 78%
    11:00 0°C° 0 mm 1 mps 744 mmHg 78%
    12:00 0°C° 0 mm 1 mps 744 mmHg 79%
    13:00 -2°C° 0 mm 2 mps 744 mmHg 79%
    14:00 -2°C° 0.1 mm 2 mps 744 mmHg 81%
    15:00 -2°C° 0.1 mm 2 mps 744 mmHg 84%
    16:00 -2°C° 0.1 mm 2 mps 744 mmHg 86%
    17:00 -2°C° 0.1 mm 2 mps 744 mmHg 88%
    18:00 -2°C° 0.1 mm 3 mps 744 mmHg 89%
    19:00 -2°C° 0.1 mm 3 mps 744 mmHg 90%
    20:00 -2°C° 0.3 mm 3 mps 744 mmHg 90%
    21:00 -3°C° 0.3 mm 4 mps 744 mmHg 91%
    22:00 -2°C° 0.3 mm 4 mps 744 mmHg 91%
    23:00 -2°C° 0.1 mm 4 mps 744 mmHg 90%

    21 December, Friday

    Time Temperature Precipitation Wind Pressure Humidity
    00:00 -2°C° 0.1 mm 4 mps 744 mmHg 89%
    01:00 -2°C° 0.1 mm 4 mps 744 mmHg 88%
    02:00 -2°C° 0 mm 4 mps 744 mmHg 89%
    03:00 -2°C° 0 mm 4 mps 744 mmHg 89%
    04:00 -2°C° 0 mm 4 mps 744 mmHg 89%
    05:00 -2°C° 0 mm 4 mps 744 mmHg 89%
    06:00 -2°C° 0 mm 4 mps 744 mmHg 90%
    07:00 -2°C° 0 mm 4 mps 744 mmHg 90%
    08:00 -2°C° 0 mm 4 mps 744 mmHg 89%
    09:00 -1°C° 0 mm 4 mps 744 mmHg 89%
    10:00 -1°C° 0 mm 4 mps 743 mmHg 88%
    11:00 0°C° 0 mm 4 mps 743 mmHg 89%
    12:00 0°C° 0 mm 4 mps 743 mmHg 90%
    13:00 +1°C° 0 mm 3 mps 742 mmHg 91%
    14:00 +1°C° 0 mm 3 mps 742 mmHg 90%
    15:00 +1°C° 0 mm 3 mps 741 mmHg 90%
    16:00 0°C° 0 mm 3 mps 741 mmHg 90%
    17:00 0°C° 0.3 mm 3 mps 740 mmHg 90%
    18:00 0°C° 0.3 mm 4 mps 740 mmHg 90%
    19:00 0°C° 0.3 mm 4 mps 739 mmHg 90%
    20:00 0°C° 0.6 mm 4 mps 738 mmHg 90%
    21:00 0°C° 0.6 mm 4 mps 738 mmHg 89%
    22:00 0°C° 0.6 mm 5 mps 737 mmHg 89%
    23:00 -1°C° 0.7 mm 6 mps 737 mmHg 89%

    22 December, Saturday

    Time Temperature Precipitation Wind Pressure Humidity
    00:00 +1°C° 0.7 mm 6 mps 736 mmHg 89%
    01:00 0°C° 0.7 mm 7 mps 736 mmHg 89%
    02:00 +2°C° 0.1 mm 7 mps 736 mmHg 90%
    03:00 +2°C° 0.1 mm 7 mps 735 mmHg 91%
    04:00 +2°C° 0.1 mm 6 mps 735 mmHg 91%
    05:00 +2°C° 0 mm 6 mps 736 mmHg 90%
    06:00 +2°C° 0 mm 7 mps 736 mmHg 89%
    07:00 +2°C° 0 mm 7 mps 736 mmHg 88%
    08:00 +2°C° 0 mm 6 mps 737 mmHg 87%
    09:00 +2°C° 0 mm 6 mps 737 mmHg 87%
    10:00 +2°C° 0 mm 6 mps 737 mmHg 86%
    11:00 +3°C° 0 mm 6 mps 737 mmHg 86%
    12:00 +3°C° 0 mm 6 mps 737 mmHg 86%
    13:00 +3°C° 0 mm 5 mps 736 mmHg 86%
    14:00 +3°C° 0.1 mm 5 mps 736 mmHg 87%
    15:00 +3°C° 0.1 mm 5 mps 735 mmHg 89%
    16:00 +3°C° 0.1 mm 5 mps 735 mmHg 90%
    17:00 +3°C° 0.2 mm 6 mps 734 mmHg 89%
    18:00 +4°C° 0.2 mm 7 mps 734 mmHg 88%
    19:00 +4°C° 0.2 mm 8 mps 734 mmHg 87%
    20:00 +4°C° 0.1 mm 8 mps 734 mmHg 86%
    21:00 +4°C° 0.1 mm 8 mps 734 mmHg 84%
    22:00 +2°C° 0.1 mm 8 mps 734 mmHg 83%
    23:00 +2°C° 0 mm 8 mps 735 mmHg 84%

    23 December, Sunday

    Time Temperature Precipitation Wind Pressure Humidity
    00:00 +3°C° 0 mm 7 mps 736 mmHg 85%
    01:00 +3°C° 0 mm 7 mps 736 mmHg 86%
    02:00 +3°C° 0.1 mm 7 mps 736 mmHg 85%
    03:00 +3°C° 0.1 mm 7 mps 737 mmHg 85%
    04:00 +3°C° 0.1 mm 7 mps 737 mmHg 84%
    05:00 +3°C° 0.1 mm 7 mps 737 mmHg 84%
    06:00 +3°C° 0.1 mm 7 mps 738 mmHg 83%
    07:00 +2°C° 0.1 mm 8 mps 738 mmHg 83%
    08:00 +2°C° 0 mm 8 mps 738 mmHg 82%
    09:00 +2°C° 0 mm 8 mps 739 mmHg 82%
    10:00 +2°C° 0 mm 8 mps 739 mmHg 81%
    11:00 +2°C° 0.1 mm 8 mps 739 mmHg 81%
    12:00 +2°C° 0.1 mm 8 mps 739 mmHg 80%
    13:00 +2°C° 0.1 mm 8 mps 739 mmHg 80%
    14:00 +3°C° 0.1 mm 7 mps 740 mmHg 81%
    15:00 +3°C° 0.1 mm 7 mps 740 mmHg 81%
    16:00 +3°C° 0.1 mm 6 mps 740 mmHg 82%
    17:00 +3°C° 0.1 mm 6 mps 740 mmHg 83%
    18:00 +3°C° 0.1 mm 6 mps 740 mmHg 83%
    19:00 +3°C° 0.1 mm 6 mps 740 mmHg 84%
    20:00 +3°C° 0.1 mm 6 mps 741 mmHg 84%
    21:00 +3°C° 0.1 mm 6 mps 741 mmHg 83%
    22:00 +3°C° 0.1 mm 6 mps 741 mmHg 83%
    23:00 +2°C° 0.1 mm 6 mps 741 mmHg 83%
    Show more